Location: Bremen
(53.0793°N, 8.8017°E)
Time: 09:30:29
(UTC+01:00)

Transit 2A - Pass Details

Date: 03 December 2021
Orbit: 591 x 966 km, 66.7° (Epoch: 26 January)

Event Time Altitude Azimuth Distance (km) Brightness Sun altitude
Exits shadow 05:31:13 21° 340° (NNW) 2,015 7.9 -23.9°
Maximum altitude 05:33:06 24° 5° (N) 1,891 8.0 -23.7°
Drops below altitude 10° 05:38:10 10° 58° (ENE) 2,714 9.5 -22.9°
Sets 05:41:18 0° 72° (ENE) 3,650 10.6 -22.4°
